GW3820 Weather Reports


time (UTC)temp
F
wind
direction
speed
knots
gust
knots
rain 1hr
in
rain 24hr
in
rain mn
in
humidity
%
barometer
mb
20260503210838 65 237 4.3 8.7 0.00 0.00 0.00 39 1009.6
20260503205838 64 213 9.6 17.4 0.00 0.00 0.00 40 1009.8
20260503204818 64 251 6.1 18.2 0.00 0.00 0.00 38 1009.9
20260503203817 66 215 7.8 15.6 0.00 0.00 0.00 38 1010.0
20260503202818 65 252 7.0 17.4 0.00 0.00 0.00 39 1010.1
20260503201818 64 273 5.2 15.6 0.00 0.00 0.00 39 1010.0
20260503200818 65 223 7.8 12.2 0.00 0.00 0.00 38 1010.1
20260503195818 66 256 5.2 11.3 0.00 0.00 0.00 38 1010.4
20260503194817 64 221 8.7 18.2 0.00 0.00 0.00 37 1010.5
20260503193818 65 213 4.3 8.7 0.00 0.00 0.00 39 1010.5
20260503192818 64 231 12.2 25.2 0.00 0.00 0.00 39 1010.7
20260503191838 64 228 13.0 21.7 0.00 0.00 0.00 37 1010.8
20260503190818 64 229 7.0 12.2 0.00 0.00 0.00 38 1010.9
20260503185818 65 234 8.7 23.5 0.00 0.00 0.00 37 1011.0
20260503184818 65 243 7.8 16.5 0.00 0.00 0.00 38 1011.2
20260503183817 65 269 11.3 21.7 0.00 0.00 0.00 37 1011.3
20260503182838 62 183 3.5 7.8 0.00 0.00 0.00 41 1011.4
20260503181838 63 256 7.8 13.9 0.00 0.00 0.00 39 1011.6
20260503180818 63 217 7.0 14.8 0.00 0.00 0.00 41 1011.7
20260503175818 63 209 7.0 13.9 0.00 0.00 0.00 40 1011.8
20260503174818 61 240 5.2 13.9 0.00 0.00 0.00 42 1012.1
20260503173818 63 205 5.2 12.2 0.00 0.00 0.00 40 1012.1
20260503172818 63 218 5.2 9.6 0.00 0.00 0.00 45 1012.3
20260503171818 61 197 5.2 12.2 0.00 0.00 0.00 41 1012.4
20260503170856 61 213 5.2 13.0 0.00 0.00 0.00 43 1012.6
20260503150815 59 231 3.5 7.0 0.00 0.00 0.00 47 1013.7
20260503130856 47 223 4.3 7.8 0.00 0.00 0.00 55 1014.3
20260503080818 30 0.0 0.0 0.00 0.00 0.00 83 1015.2
20260503072856 31 0.0 0.0 0.00 0.00 0.00 83 1015.2
20260503071836 31 0.0 0.0 0.00 0.00 0.00 83 1015.3
20260503070815 31 0.0 0.0 0.00 0.01 0.00 83 1015.2
20260503054816 32 0.0 0.0 0.00 0.06 0.00 81 1015.8
20260503053815 32 0.0 0.0 0.00 0.06 0.00 80 1015.8
20260503052836 32 0.0 0.0 0.00 0.06 0.00 80 1015.8
20260503051815 32 0.0 0.0 0.00 0.06 0.00 79 1015.9
20260503050815 33 0.0 0.0 0.00 0.06 0.00 79 1015.9
20260503045815 33 0.0 0.0 0.00 0.06 0.00 78 1016.0
20260503044836 33 0.0 0.0 0.00 0.06 0.00 78 1016.0
20260503043816 33 0.0 0.0 0.00 0.06 0.00 77 1016.0
20260503042815 34 0.0 0.0 0.00 0.06 0.00 76 1016.0
20260503041815 34 0.0 0.0 0.00 0.06 0.00 76 1016.1
20260503040816 34 0.0 0.0 0.00 0.06 0.00 76 1016.2
20260503035815 34 0.0 0.0 0.00 0.06 0.06 75 1016.1
20260503034856 35 0.0 0.0 0.00 0.06 0.06 74 1016.2
20260503033816 35 0.0 0.0 0.00 0.06 0.06 72 1016.2
20260503032815 35 0.0 0.0 0.00 0.06 0.06 72 1016.3
20260503031837 36 0.0 0.0 0.00 0.06 0.06 71 1016.2
20260503030836 36 0.0 0.0 0.00 0.06 0.06 70 1016.2
20260503025816 36 0.0 0.0 0.00 0.06 0.06 68 1016.3
20260503024815 37 0.0 0.0 0.00 0.06 0.06 67 1016.3
20260503023816 38 0.0 0.0 0.00 0.06 0.06 66 1016.4
20260503022816 38 0.0 0.0 0.00 0.06 0.06 66 1016.5
20260503021815 39 0.0 0.0 0.00 0.06 0.06 65 1016.5
20260503020816 40 0.0 0.0 0.00 0.06 0.06 64 1016.3
20260503015816 40 0.0 0.0 0.00 0.06 0.06 62 1016.3
20260503014816 41 0.0 0.0 0.00 0.06 0.06 60 1016.3
20260503013816 42 0.0 0.0 0.00 0.06 0.06 59 1016.3
20260503012816 43 0.0 0.0 0.00 0.06 0.06 57 1016.2
20260503011815 44 0.0 0.0 0.00 0.06 0.06 55 1016.2
20260503010816 45 0.0 0.0 0.00 0.06 0.06 55 1016.2
20260503005836 46 0.0 0.0 0.00 0.06 0.06 54 1016.1
20260503004815 46 0.0 0.0 0.00 0.06 0.06 54 1016.1
20260503003816 47 0.0 0.0 0.00 0.06 0.06 54 1016.0
20260503002816 47 0.0 0.0 0.00 0.06 0.06 52 1016.0
20260503001815 47 238 0.0 0.9 0.00 0.06 0.06 51 1015.9
20260503000836 47 247 0.9 2.6 0.00 0.06 0.06 48 1016.0
20260502235835 47 257 2.6 3.5 0.00 0.06 0.06 47 1015.9
20260502234816 48 301 1.7 2.6 0.00 0.06 0.06 46 1015.9
20260502233815 48 230 0.0 1.7 0.00 0.06 0.06 47 1015.9
20260502232815 48 216 1.7 2.6 0.00 0.06 0.06 45 1016.0
20260502231856 48 318 0.9 4.3 0.00 0.06 0.06 45 1016.0
20260502230816 48 315 1.7 2.6 0.00 0.06 0.06 44 1016.1
20260502225816 48 307 1.7 5.2 0.00 0.06 0.06 45 1016.0
20260502224816 48 344 0.9 3.5 0.00 0.06 0.06 45 1016.0
20260502223816 48 323 1.7 2.6 0.00 0.06 0.06 44 1016.1
20260502222816 48 269 3.5 6.1 0.00 0.06 0.06 44 1016.1
20260502221836 49 24 0.9 4.3 0.00 0.06 0.06 42 1016.1
20260502220821 49 314 3.5 8.7 0.00 0.06 0.06 42 1016.2
20260502215816 49 326 4.3 8.7 0.00 0.06 0.06 42 1016.1
20260502214816 49 276 0.9 2.6 0.00 0.06 0.06 43 1016.1
20260502213816 49 264 4.3 7.8 0.00 0.06 0.06 42 1016.0
20260502212816 49 328 2.6 5.2 0.00 0.06 0.06 43 1016.1
20260502211815 49 290 3.5 9.6 0.00 0.06 0.06 42 1016.2